| time (UTC) | temp F | wind direction | speed MPH | gust MPH | rain 1hr in | rain 24hr in | rain mn in | humidity % | barometer mb |
| 20260507191712 | 64 | 115 | 7.0 | 15.0 | 0.00 | 0.00 | 0.00 | 22 | |
| 20260507191212 | 64 | 77 | 5.0 | 12.0 | 0.00 | 0.00 | 0.00 | 22 | |
| 20260507190712 | 64 | 140 | 5.0 | 12.0 | 0.00 | 0.00 | 0.00 | 22 | |
| 20260507190212 | 62 | 115 | 9.0 | 11.0 | 0.00 | 0.00 | 0.00 | 24 | |
| 20260507185712 | 62 | 101 | 7.0 | 16.0 | 0.00 | 0.00 | 0.00 | 24 | |
| 20260507185212 | 62 | 106 | 1.0 | 12.0 | 0.00 | 0.00 | 0.00 | 25 | |
| 20260507184712 | 63 | 84 | 3.0 | 10.0 | 0.00 | 0.00 | 0.00 | 25 | |
| 20260507184212 | 63 | 116 | 6.0 | 8.0 | 0.00 | 0.00 | 0.00 | 27 | |
| 20260507183712 | 62 | 49 | 4.0 | 11.0 | 0.00 | 0.00 | 0.00 | 29 | |
| 20260507183212 | 62 | 105 | 7.0 | 13.0 | 0.00 | 0.00 | 0.00 | 30 | |
| 20260507182712 | 63 | 165 | 6.0 | 12.0 | 0.00 | 0.00 | 0.00 | 29 | |
| 20260507182212 | 62 | 140 | 2.0 | 9.0 | 0.00 | 0.00 | 0.00 | 29 | |
| 20260507181712 | 62 | 135 | 4.0 | 14.0 | 0.00 | 0.00 | 0.00 | 29 | |
| 20260507181212 | 61 | 139 | 14.0 | 14.0 | 0.00 | 0.00 | 0.00 | 29 | |
| 20260507180712 | 61 | 120 | 5.0 | 13.0 | 0.00 | 0.00 | 0.00 | 28 | |
| 20260507180212 | 61 | 126 | 1.0 | 9.0 | 0.00 | 0.00 | 0.00 | 29 | |
| 20260507175712 | 60 | 122 | 4.0 | 7.0 | 0.00 | 0.00 | 0.00 | 30 | |
| 20260507175212 | 60 | 5 | 0.0 | 12.0 | 0.00 | 0.00 | 0.00 | 30 | |
| 20260507174712 | 60 | 164 | 6.0 | 12.0 | 0.00 | 0.00 | 0.00 | 29 | |
| 20260507174212 | 60 | 70 | 5.0 | 8.0 | 0.00 | 0.00 | 0.00 | 29 | |
| 20260507173712 | 59 | 203 | 2.0 | 9.0 | 0.00 | 0.00 | 0.00 | 30 | |
| 20260507173212 | 59 | 120 | 7.0 | 10.0 | 0.00 | 0.00 | 0.00 | 31 | |
| 20260507172712 | 59 | 146 | 8.0 | 10.0 | 0.00 | 0.00 | 0.00 | 30 | |
| 20260507172212 | 58 | 115 | 10.0 | 12.0 | 0.00 | 0.00 | 0.00 | 31 | |
| 20260507171712 | 58 | 142 | 5.0 | 14.0 | 0.00 | 0.00 | 0.00 | 31 | |
| 20260507171212 | 58 | 64 | 1.0 | 10.0 | 0.00 | 0.00 | 0.00 | 29 | |
| 20260507170712 | 57 | 153 | 3.0 | 14.0 | 0.00 | 0.00 | 0.00 | 30 | |
| 20260507170212 | 57 | 81 | 4.0 | 9.0 | 0.00 | 0.00 | 0.00 | 31 | |
| 20260507165712 | 57 | 125 | 5.0 | 10.0 | 0.00 | 0.00 | 0.00 | 32 | |
| 20260507165212 | 57 | 127 | 3.0 | 11.0 | 0.00 | 0.00 | 0.00 | 31 | |
| 20260507164712 | 58 | 25 | 1.0 | 8.0 | 0.00 | 0.00 | 0.00 | 30 | |
| 20260507164212 | 57 | 142 | 4.0 | 8.0 | 0.00 | 0.00 | 0.00 | 27 | |
| 20260507163712 | 55 | 108 | 7.0 | 10.0 | 0.00 | 0.00 | 0.00 | 25 | |
| 20260507163212 | 56 | 135 | 5.0 | 12.0 | 0.00 | 0.00 | 0.00 | 25 | |
| 20260507162712 | 57 | 74 | 2.0 | 7.0 | 0.00 | 0.00 | 0.00 | 27 | |
| 20260507162212 | 56 | 108 | 5.0 | 9.0 | 0.00 | 0.00 | 0.00 | 28 | |
| 20260507161712 | 56 | 90 | 6.0 | 8.0 | 0.00 | 0.00 | 0.00 | 29 | |
| 20260507161212 | 55 | 104 | 5.0 | 7.0 | 0.00 | 0.00 | 0.00 | 31 | |
| 20260507160712 | 54 | 120 | 4.0 | 9.0 | 0.00 | 0.00 | 0.00 | 29 | |
| 20260507160212 | 55 | 161 | 0.0 | 7.0 | 0.00 | 0.00 | 0.00 | 31 | |
| 20260507155712 | 54 | 250 | 0.0 | 8.0 | 0.00 | 0.00 | 0.00 | 31 | |
| 20260507155212 | 53 | 123 | 4.0 | 5.0 | 0.00 | 0.00 | 0.00 | 37 | |
| 20260507154712 | 52 | 16 | 0.0 | 7.0 | 0.00 | 0.00 | 0.00 | 39 | |
| 20260507154212 | 52 | 113 | 7.0 | 10.0 | 0.00 | 0.00 | 0.00 | 40 | |
| 20260507153712 | 51 | 101 | 4.0 | 9.0 | 0.00 | 0.00 | 0.00 | 37 | |
| 20260507153212 | 51 | 105 | 1.0 | 6.0 | 0.00 | 0.00 | 0.00 | 45 | |
| 20260507152712 | 50 | 140 | 5.0 | 10.0 | 0.00 | 0.00 | 0.00 | 45 | |
| 20260507152212 | 50 | 174 | 4.0 | 9.0 | 0.00 | 0.00 | 0.00 | 46 | |
| 20260507151712 | 50 | 137 | 3.0 | 9.0 | 0.00 | 0.00 | 0.00 | 46 | |
| 20260507151212 | 50 | 29 | 3.0 | 8.0 | 0.00 | 0.00 | 0.00 | 49 | |
| 20260507150712 | 49 | 142 | 3.0 | 8.0 | 0.00 | 0.00 | 0.00 | 47 | |
| 20260507150212 | 49 | 177 | 3.0 | 8.0 | 0.00 | 0.00 | 0.00 | 49 | |
| 20260507145712 | 49 | 184 | 5.0 | 10.0 | 0.00 | 0.00 | 0.00 | 49 | |
| 20260507145212 | 49 | 112 | 6.0 | 7.0 | 0.00 | 0.00 | 0.00 | 48 | |
| 20260507144712 | 49 | 132 | 4.0 | 8.0 | 0.00 | 0.00 | 0.00 | 47 | |
| 20260507144212 | 49 | 115 | 3.0 | 8.0 | 0.00 | 0.00 | 0.00 | 49 | |
| 20260507143712 | 49 | 78 | 6.0 | 6.0 | 0.00 | 0.00 | 0.00 | 51 | |
| 20260507143212 | 49 | 109 | 5.0 | 7.0 | 0.00 | 0.00 | 0.00 | 50 | |
| 20260507142712 | 48 | 88 | 4.0 | 6.0 | 0.00 | 0.00 | 0.00 | 53 | |
| 20260507142212 | 48 | 75 | 3.0 | 6.0 | 0.00 | 0.00 | 0.00 | 53 | |
| 20260507141712 | 48 | 112 | 6.0 | 6.0 | 0.00 | 0.00 | 0.00 | 47 | |
| 20260507141212 | 48 | 23 | 0.0 | 0.0 | 0.00 | 0.00 | 0.00 | 48 | |
| 20260507140712 | 46 | 23 | 0.0 | 2.0 | 0.00 | 0.00 | 0.00 | 52 | |
| 20260507140212 | 45 | 21 | 0.0 | 1.0 | 0.00 | 0.00 | 0.00 | 56 | |
| 20260507135712 | 44 | 295 | 0.0 | 0.0 | 0.00 | 0.00 | 0.00 | 60 | |
| 20260507135212 | 42 | 125 | 0.0 | 1.0 | 0.00 | 0.00 | 0.00 | 65 | |
| 20260507134712 | 41 | 344 | 0.0 | 0.0 | 0.00 | 0.00 | 0.00 | 73 | |
| 20260507134212 | 39 | 344 | 0.0 | 1.0 | 0.00 | 0.00 | 0.00 | 75 | |
| 20260507133712 | 38 | 345 | 0.0 | 1.0 | 0.00 | 0.00 | 0.00 | 79 | |
| 20260507133212 | 37 | 4 | 0.0 | 2.0 | 0.00 | 0.00 | 0.00 | 81 | |
| 20260507132712 | 36 | 338 | 2.0 | 2.0 | 0.00 | 0.00 | 0.00 | 83 | |
| 20260507132212 | 35 | 341 | 1.0 | 3.0 | 0.00 | 0.00 | 0.00 | 86 | |
| 20260507131712 | 34 | 337 | 2.0 | 3.0 | 0.00 | 0.00 | 0.00 | 89 | |
| 20260507131212 | 33 | 336 | 1.0 | 2.0 | 0.00 | 0.00 | 0.00 | 92 | |
| 20260507130712 | 32 | 315 | 0.0 | 0.0 | 0.00 | 0.00 | 0.00 | 94 | |
| 20260507130212 | 31 | 315 | 0.0 | 0.0 | 0.00 | 0.00 | 0.00 | 95 | |
| 20260507125712 | 31 | 315 | 0.0 | 0.0 | 0.00 | 0.00 | 0.00 | 95 | |
| 20260507125212 | 30 | 327 | 0.0 | 0.0 | 0.00 | 0.00 | 0.00 | 95 | |
| 20260507124712 | 30 | 327 | 0.0 | 2.0 | 0.00 | 0.00 | 0.00 | 95 | |
| 20260507124212 | 30 | 337 | 2.0 | 2.0 | 0.00 | 0.00 | 0.00 | 95 | |
| 20260507123712 | 29 | 327 | 1.0 | 2.0 | 0.00 | 0.00 | 0.00 | 96 | |
| 20260507123212 | 29 | 316 | 1.0 | 3.0 | 0.00 | 0.00 | 0.00 | 96 | |
| 20260507122712 | 29 | 336 | 2.0 | 2.0 | 0.00 | 0.00 | 0.00 | 95 | |
| 20260507122212 | 29 | 272 | 0.0 | 0.0 | 0.00 | 0.00 | 0.00 | 95 | |
| 20260507121712 | 29 | 272 | 0.0 | 0.0 | 0.00 | 0.00 | 0.00 | 96 | |
| 20260507121212 | 29 | 272 | 0.0 | 0.0 | 0.00 | 0.00 | 0.00 | 96 | |
| 20260507120712 | 29 | 272 | 0.0 | 0.0 | 0.00 | 0.00 | 0.00 | 96 | |
| 20260507120212 | 29 | 272 | 0.0 | 0.0 | 0.00 | 0.00 | 0.00 | 96 | |
| 20260507115713 | 29 | 272 | 0.0 | 0.0 | 0.00 | 0.00 | 0.00 | 96 | |
| 20260507115213 | 29 | 272 | 0.0 | 0.0 | 0.00 | 0.00 | 0.00 | 96 | |
| 20260507114712 | 29 | 272 | 0.0 | 0.0 | 0.00 | 0.00 | 0.00 | 96 | |
| 20260507114213 | 29 | 272 | 0.0 | 2.0 | 0.00 | 0.00 | 0.00 | 96 | |
| 20260507113713 | 29 | 285 | 1.0 | 3.0 | 0.00 | 0.00 | 0.00 | 96 | |
| 20260507113213 | 29 | 279 | 0.0 | 0.0 | 0.00 | 0.00 | 0.00 | 96 | |
| 20260507112713 | 29 | 279 | 0.0 | 0.0 | 0.00 | 0.00 | 0.00 | 96 | |
| 20260507112213 | 29 | 279 | 0.0 | 0.0 | 0.00 | 0.00 | 0.00 | 96 | |
| 20260507111713 | 29 | 279 | 0.0 | 0.0 | 0.00 | 0.00 | 0.00 | 96 | |
| 20260507111213 | 29 | 279 | 0.0 | 0.0 | 0.00 | 0.00 | 0.00 | 96 | |
| 20260507110713 | 29 | 279 | 0.0 | 0.0 | 0.00 | 0.00 | 0.00 | 96 | |
| 20260507110213 | 29 | 279 | 0.0 | 0.0 | 0.00 | 0.00 | 0.00 | 96 | |
| 20260507105713 | 29 | 279 | 0.0 | 0.0 | 0.00 | 0.00 | 0.00 | 96 | |
| 20260507105213 | 29 | 279 | 0.0 | 0.0 | 0.00 | 0.00 | 0.00 | 96 | |
| 20260507104713 | 29 | 279 | 0.0 | 0.0 | 0.00 | 0.00 | 0.00 | 96 | |
| 20260507104213 | 29 | 279 | 0.0 | 0.0 | 0.00 | 0.00 | 0.00 | 96 | |
| 20260507103713 | 29 | 279 | 0.0 | 0.0 | 0.00 | 0.00 | 0.00 | 96 | |
| 20260507103213 | 29 | 279 | 0.0 | 0.0 | 0.00 | 0.00 | 0.00 | 96 | |
| 20260507102713 | 29 | 279 | 0.0 | 0.0 | 0.00 | 0.00 | 0.00 | 96 | |
| 20260507102213 | 29 | 279 | 0.0 | 0.0 | 0.00 | 0.00 | 0.00 | 96 | |
| 20260507101713 | 29 | 279 | 0.0 | 0.0 | 0.00 | 0.00 | 0.00 | 96 | |
| 20260507101213 | 30 | 279 | 0.0 | 0.0 | 0.00 | 0.00 | 0.00 | 96 | |
| 20260507100713 | 30 | 279 | 0.0 | 0.0 | 0.00 | 0.00 | 0.00 | 96 | |
| 20260507100213 | 30 | 279 | 0.0 | 0.0 | 0.00 | 0.00 | 0.00 | 96 | |
| 20260507095713 | 30 | 279 | 0.0 | 2.0 | 0.00 | 0.00 | 0.00 | 96 | |
| 20260507095213 | 30 | 267 | 0.0 | 3.0 | 0.00 | 0.00 | 0.00 | 96 | |
| 20260507094713 | 30 | 296 | 2.0 | 2.0 | 0.00 | 0.00 | 0.00 | 96 | |
| 20260507094213 | 30 | 330 | 0.0 | 0.0 | 0.00 | 0.00 | 0.00 | 95 | |
| 20260507093713 | 30 | 330 | 0.0 | 0.0 | 0.00 | 0.00 | 0.00 | 95 | |
| 20260507093213 | 30 | 330 | 0.0 | 0.0 | 0.00 | 0.00 | 0.00 | 95 | |
| 20260507092713 | 31 | 330 | 0.0 | 0.0 | 0.00 | 0.00 | 0.00 | 95 | |
| 20260507092213 | 31 | 330 | 0.0 | 0.0 | 0.00 | 0.00 | 0.00 | 95 | |
| 20260507091713 | 31 | 330 | 0.0 | 0.0 | 0.00 | 0.00 | 0.00 | 95 | |
| 20260507091213 | 31 | 330 | 0.0 | 0.0 | 0.00 | 0.00 | 0.00 | 95 | |
| 20260507090713 | 31 | 330 | 0.0 | 0.0 | 0.00 | 0.00 | 0.00 | 95 | |
| 20260507090213 | 31 | 330 | 0.0 | 0.0 | 0.00 | 0.00 | 0.00 | 95 | |
| 20260507085713 | 31 | 330 | 0.0 | 0.0 | 0.00 | 0.00 | 0.00 | 95 | |
| 20260507085213 | 31 | 330 | 0.0 | 1.0 | 0.00 | 0.00 | 0.00 | 95 | |
| 20260507084713 | 31 | 324 | 1.0 | 2.0 | 0.00 | 0.00 | 0.00 | 95 | |
| 20260507084213 | 32 | 274 | 0.0 | 0.0 | 0.00 | 0.00 | 0.00 | 96 | |
| 20260507083713 | 31 | 274 | 0.0 | 0.0 | 0.00 | 0.00 | 0.00 | 96 | |
| 20260507083213 | 32 | 274 | 0.0 | 0.0 | 0.00 | 0.00 | 0.00 | 95 | |
| 20260507082713 | 32 | 274 | 0.0 | 0.0 | 0.00 | 0.00 | 0.00 | 95 | |
| 20260507082213 | 32 | 274 | 0.0 | 0.0 | 0.00 | 0.00 | 0.00 | 95 | |
| 20260507081713 | 32 | 274 | 0.0 | 0.0 | 0.00 | 0.00 | 0.00 | 95 | |
| 20260507081213 | 32 | 274 | 0.0 | 0.0 | 0.00 | 0.00 | 0.00 | 95 | |
| 20260507080713 | 32 | 274 | 0.0 | 0.0 | 0.00 | 0.00 | 0.00 | 95 | |
| 20260507080213 | 33 | 274 | 0.0 | 0.0 | 0.00 | 0.00 | 0.00 | 95 | |
| 20260507075713 | 33 | 274 | 0.0 | 0.0 | 0.00 | 0.00 | 0.00 | 94 | |
| 20260507075213 | 33 | 274 | 0.0 | 0.0 | 0.00 | 0.00 | 0.00 | 94 | |
| 20260507074713 | 34 | 274 | 0.0 | 0.0 | 0.00 | 0.00 | 0.00 | 94 | |
| 20260507074213 | 34 | 274 | 0.0 | 0.0 | 0.00 | 0.00 | 0.00 | 94 | |
| 20260507073713 | 34 | 274 | 0.0 | 0.0 | 0.00 | 0.00 | 0.00 | 93 | |
| 20260507073213 | 35 | 274 | 0.0 | 0.0 | 0.00 | 0.00 | 0.00 | 92 | |
| 20260507072713 | 35 | 274 | 0.0 | 0.0 | 0.00 | 0.00 | 0.00 | 92 | |
| 20260507072213 | 35 | 274 | 0.0 | 0.0 | 0.00 | 0.00 | 0.00 | 92 | |
| 20260507071713 | 35 | 274 | 0.0 | 0.0 | 0.00 | 0.00 | 0.00 | 92 | |
| 20260507071213 | 36 | 274 | 0.0 | 0.0 | 0.00 | 0.00 | 0.00 | 92 | |
| 20260507070713 | 36 | 274 | 0.0 | 0.0 | 0.00 | 0.00 | 0.00 | 91 | |
| 20260507070213 | 37 | 274 | 0.0 | 0.0 | 0.00 | 0.00 | 0.00 | 89 | |
| 20260507065713 | 37 | 274 | 0.0 | 0.0 | 0.00 | 0.00 | 0.00 | 89 | |
| 20260507065213 | 38 | 274 | 0.0 | 0.0 | 0.00 | 0.00 | 0.00 | 87 | |
| 20260507064713 | 38 | 274 | 0.0 | 0.0 | 0.00 | 0.00 | 0.00 | 87 | |
| 20260507064213 | 38 | 274 | 0.0 | 0.0 | 0.00 | 0.00 | 0.00 | 87 | |
| 20260507063713 | 38 | 274 | 0.0 | 2.0 | 0.00 | 0.00 | 0.00 | 88 | |
| 20260507063213 | 38 | 127 | 0.0 | 0.0 | 0.00 | 0.00 | 0.00 | 87 | |
| 20260507062713 | 39 | 127 | 0.0 | 0.0 | 0.00 | 0.00 | 0.00 | 87 | |
| 20260507062213 | 39 | 198 | 0.0 | 0.0 | 0.00 | 0.00 | 0.00 | 87 | |
| 20260507061713 | 39 | 198 | 0.0 | 0.0 | 0.00 | 0.00 | 0.00 | 87 | |
| 20260507061213 | 39 | 198 | 0.0 | 1.0 | 0.00 | 0.00 | 0.00 | 87 | |
| 20260507060713 | 39 | 226 | 1.0 | 1.0 | 0.00 | 0.00 | 0.00 | 88 | |
| 20260507060213 | 39 | 292 | 0.0 | 2.0 | 0.00 | 0.00 | 0.00 | 87 | |
| 20260507055713 | 39 | 289 | 0.0 | 1.0 | 0.00 | 0.00 | 0.00 | 88 | |
| 20260507055213 | 39 | 230 | 0.0 | 1.0 | 0.00 | 0.00 | 0.00 | 88 | |
| 20260507054713 | 39 | 16 | 0.0 | 0.0 | 0.00 | 0.00 | 0.00 | 88 | |
| 20260507054213 | 39 | 16 | 0.0 | 0.0 | 0.00 | 0.00 | 0.00 | 88 | |
| 20260507053713 | 39 | 16 | 0.0 | 1.0 | 0.00 | 0.00 | 0.00 | 89 | |
| 20260507053213 | 39 | 336 | 0.0 | 0.0 | 0.00 | 0.00 | 0.00 | 89 | |
| 20260507052713 | 39 | 347 | 0.0 | 2.0 | 0.00 | 0.00 | 0.00 | 90 | |
| 20260507052213 | 39 | 149 | 0.0 | 0.0 | 0.00 | 0.00 | 0.00 | 90 | |
| 20260507051713 | 39 | 149 | 0.0 | 0.0 | 0.00 | 0.00 | 0.00 | 90 | |
| 20260507051213 | 39 | 149 | 0.0 | 0.0 | 0.00 | 0.00 | 0.00 | 91 | |
| 20260507050713 | 39 | 149 | 0.0 | 1.0 | 0.00 | 0.00 | 0.00 | 91 | |
| 20260507050213 | 39 | 149 | 1.0 | 3.0 | 0.00 | 0.00 | 0.00 | 91 | |
| 20260507045713 | 39 | 25 | 0.0 | 0.0 | 0.00 | 0.00 | 0.00 | 90 | |
| 20260507045213 | 39 | 25 | 0.0 | 2.0 | 0.00 | 0.00 | 0.00 | 90 | |
| 20260507044713 | 39 | 344 | 0.0 | 4.0 | 0.00 | 0.00 | 0.00 | 89 | |
| 20260507044213 | 39 | 28 | 1.0 | 4.0 | 0.00 | 0.00 | 0.00 | 88 | |
| 20260507043713 | 39 | 7 | 0.0 | 3.0 | 0.00 | 0.00 | 0.00 | 88 | |
| 20260507043213 | 39 | 81 | 0.0 | 3.0 | 0.00 | 0.00 | 0.00 | 88 | |
| 20260507042713 | 39 | 286 | 0.0 | 1.0 | 0.00 | 0.00 | 0.00 | 88 | |
| 20260507042213 | 39 | 7 | 0.0 | 5.0 | 0.00 | 0.00 | 0.00 | 88 | |
| 20260507041713 | 39 | 87 | 0.0 | 0.0 | 0.00 | 0.00 | 0.00 | 88 | |
| 20260507041213 | 39 | 87 | 0.0 | 6.0 | 0.00 | 0.00 | 0.00 | 88 | |
| 20260507040713 | 38 | 105 | 4.0 | 6.0 | 0.00 | 0.00 | 0.00 | 89 | |
| 20260507040213 | 39 | 68 | 2.0 | 2.0 | 0.00 | 0.00 | 0.00 | 88 | |
| 20260507035713 | 39 | 125 | 2.0 | 2.0 | 0.00 | 0.00 | 0.00 | 89 | |
| 20260507035213 | 39 | 23 | 1.0 | 2.0 | 0.00 | 0.00 | 0.00 | 88 | |
| 20260507034713 | 39 | 337 | 1.0 | 4.0 | 0.00 | 0.00 | 0.00 | 89 | |
| 20260507034213 | 39 | 341 | 0.0 | 5.0 | 0.00 | 0.00 | 0.00 | 88 | |
| 20260507033713 | 39 | 60 | 0.0 | 9.0 | 0.00 | 0.00 | 0.00 | 88 | |
| 20260507033213 | 39 | 345 | 0.0 | 5.0 | 0.00 | 0.00 | 0.00 | 88 | |
| 20260507032713 | 39 | 341 | 2.0 | 5.0 | 0.00 | 0.00 | 0.00 | 89 | |
| 20260507032213 | 39 | 8 | 1.0 | 7.0 | 0.00 | 0.00 | 0.00 | 89 | |
| 20260507031713 | 40 | 343 | 3.0 | 6.0 | 0.00 | 0.00 | 0.00 | 88 | |
| 20260507031213 | 39 | 337 | 5.0 | 7.0 | 0.00 | 0.00 | 0.00 | 88 | |
| 20260507030713 | 40 | 59 | 1.0 | 7.0 | 0.00 | 0.00 | 0.00 | 88 | |
| 20260507030213 | 40 | 32 | 2.0 | 3.0 | 0.00 | 0.00 | 0.00 | 87 | |
| 20260507025713 | 40 | 237 | 0.0 | 0.0 | 0.00 | 0.00 | 0.00 | 87 | |
| 20260507025213 | 40 | 237 | 0.0 | 0.0 | 0.00 | 0.01 | 0.00 | 86 | |
| 20260507024713 | 40 | 237 | 0.0 | 2.0 | 0.00 | 0.01 | 0.00 | 87 | |
| 20260507024213 | 40 | 32 | 2.0 | 3.0 | 0.00 | 0.01 | 0.00 | 87 | |
| 20260507023713 | 40 | 21 | 0.0 | 2.0 | 0.00 | 0.01 | 0.00 | 87 | |
| 20260507023213 | 40 | 302 | 0.0 | 4.0 | 0.00 | 0.01 | 0.00 | 87 | |
| 20260507022713 | 40 | 358 | 2.0 | 7.0 | 0.00 | 0.01 | 0.00 | 87 | |
| 20260507022213 | 41 | 26 | 1.0 | 6.0 | 0.00 | 0.01 | 0.00 | 87 | |
| 20260507021713 | 41 | 42 | 2.0 | 10.0 | 0.00 | 0.01 | 0.00 | 86 | |
| 20260507021213 | 41 | 5 | 6.0 | 9.0 | 0.00 | 0.01 | 0.00 | 86 | |
| 20260507020713 | 42 | 341 | 1.0 | 5.0 | 0.00 | 0.01 | 0.00 | 84 | |
| 20260507020213 | 42 | 329 | 2.0 | 4.0 | 0.00 | 0.01 | 0.00 | 85 | |
| 20260507015713 | 42 | 195 | 0.0 | 6.0 | 0.00 | 0.01 | 0.00 | 85 | |
| 20260507015214 | 42 | 108 | 3.0 | 4.0 | 0.00 | 0.01 | 0.00 | 84 | |
| 20260507014714 | 42 | 226 | 1.0 | 5.0 | 0.00 | 0.01 | 0.00 | 84 | |
| 20260507014214 | 42 | 2 | 2.0 | 3.0 | 0.00 | 0.01 | 0.00 | 83 | |
| 20260507013713 | 42 | 327 | 0.0 | 4.0 | 0.00 | 0.01 | 0.00 | 82 | |
| 20260507013214 | 42 | 8 | 0.0 | 3.0 | 0.00 | 0.01 | 0.00 | 82 | |
| 20260507012714 | 42 | 5 | 0.0 | 4.0 | 0.00 | 0.01 | 0.00 | 83 | |
| 20260507012214 | 42 | 320 | 1.0 | 3.0 | 0.00 | 0.01 | 0.00 | 83 | |
| 20260507011714 | 42 | 348 | 3.0 | 5.0 | 0.00 | 0.01 | 0.00 | 83 | |
| 20260507011214 | 42 | 14 | 4.0 | 8.0 | 0.00 | 0.01 | 0.00 | 82 | |
| 20260507010714 | 42 | 310 | 1.0 | 4.0 | 0.00 | 0.01 | 0.00 | 83 | |
| 20260507010214 | 42 | 243 | 0.0 | 2.0 | 0.00 | 0.01 | 0.00 | 84 | |
| 20260507005714 | 43 | 158 | 2.0 | 9.0 | 0.00 | 0.01 | 0.00 | 83 | |
| 20260507005214 | 43 | 140 | 6.0 | 9.0 | 0.00 | 0.01 | 0.00 | 80 | |
| 20260507004714 | 44 | 226 | 0.0 | 4.0 | 0.00 | 0.01 | 0.00 | 76 | |
| 20260507004214 | 44 | 229 | 2.0 | 8.0 | 0.00 | 0.01 | 0.00 | 75 | |
| 20260507003714 | 45 | 180 | 3.0 | 11.0 | 0.00 | 0.01 | 0.00 | 74 | |
| 20260507003214 | 48 | 122 | 6.0 | 14.0 | 0.00 | 0.01 | 0.00 | 69 | |
| 20260507002714 | 50 | 91 | 11.0 | 11.0 | 0.00 | 0.01 | 0.00 | 59 | |
| 20260507002214 | 50 | 132 | 7.0 | 7.0 | 0.00 | 0.01 | 0.00 | 61 | |
| 20260507001714 | 50 | 233 | 1.0 | 12.0 | 0.00 | 0.01 | 0.00 | 61 | |
| 20260507001214 | 50 | 9 | 2.0 | 16.0 | 0.00 | 0.01 | 0.00 | 61 | |
| 20260507000714 | 50 | 334 | 6.0 | 17.0 | 0.00 | 0.01 | 0.00 | 49 | |
| 20260507000214 | 53 | 293 | 1.0 | 13.0 | 0.00 | 0.01 | 0.00 | 45 | |
| 20260506235714 | 53 | 104 | 2.0 | 22.0 | 0.00 | 0.01 | 0.00 | 46 | |
| 20260506235214 | 53 | 313 | 8.0 | 20.0 | 0.00 | 0.01 | 0.00 | 46 | |
| 20260506234714 | 54 | 146 | 0.0 | 9.0 | 0.00 | 0.01 | 0.00 | 46 | |
| 20260506234214 | 54 | 213 | 2.0 | 8.0 | 0.00 | 0.01 | 0.00 | 45 | |
| 20260506233714 | 55 | 313 | 7.0 | 8.0 | 0.00 | 0.01 | 0.00 | 44 | |
| 20260506233214 | 56 | 329 | 0.0 | 7.0 | 0.00 | 0.01 | 0.00 | 44 | |
| 20260506232714 | 55 | 22 | 3.0 | 10.0 | 0.00 | 0.01 | 0.00 | 46 | |
| 20260506232214 | 53 | 326 | 5.0 | 19.0 | 0.00 | 0.01 | 0.00 | 47 | |
| 20260506231714 | 54 | 9 | 2.0 | 17.0 | 0.00 | 0.01 | 0.00 | 48 | |
| 20260506231214 | 53 | 347 | 1.0 | 12.0 | 0.00 | 0.01 | 0.00 | 50 | |
| 20260506230714 | 53 | 30 | 2.0 | 13.0 | 0.00 | 0.01 | 0.00 | 52 | |
| 20260506230214 | 52 | 358 | 9.0 | 13.0 | 0.00 | 0.01 | 0.00 | 54 | |
| 20260506225714 | 52 | 320 | 5.0 | 16.0 | 0.00 | 0.01 | 0.00 | 55 | |
| 20260506225214 | 53 | 319 | 10.0 | 14.0 | 0.00 | 0.01 | 0.00 | 46 | |
| 20260506224714 | 58 | 293 | 2.0 | 8.0 | 0.00 | 0.01 | 0.00 | 37 | |
| 20260506224655 | 58 | 71 | 1.0 | 9.0 | 0.00 | 0.01 | 0.00 | 36 | |
| 20260506224214 | 58 | 71 | 1.0 | 9.0 | 0.00 | 0.01 | 0.00 | 36 | |
| 20260506223714 | 58 | 188 | 3.0 | 9.0 | 0.00 | 0.01 | 0.00 | 37 | |
| 20260506223214 | 57 | 292 | 1.0 | 25.0 | 0.00 | 0.01 | 0.00 | 37 | |
| 20260506222714 | 59 | 316 | 4.0 | 13.0 | 0.00 | 0.01 | 0.00 | 35 | |
| 20260506222214 | 59 | 50 | 4.0 | 8.0 | 0.00 | 0.01 | 0.00 | 34 | |
| 20260506221714 | 59 | 237 | 6.0 | 10.0 | 0.00 | 0.01 | 0.00 | 35 | |
| 20260506221214 | 58 | 302 | 3.0 | 16.0 | 0.00 | 0.01 | 0.00 | 35 | |
| 20260506220714 | 57 | 291 | 3.0 | 16.0 | 0.00 | 0.01 | 0.00 | 39 | |
| 20260506220214 | 55 | 291 | 4.0 | 16.0 | 0.00 | 0.01 | 0.00 | 40 | |
| 20260506215714 | 55 | 298 | 6.0 | 24.0 | 0.00 | 0.01 | 0.00 | 38 | |
| 20260506215214 | 58 | 323 | 11.0 | 17.0 | 0.00 | 0.01 | 0.00 | 34 | |
| 20260506214714 | 59 | 300 | 6.0 | 18.0 | 0.00 | 0.01 | 0.00 | 32 | |
| 20260506214214 | 61 | 74 | 1.0 | 12.0 | 0.00 | 0.01 | 0.00 | 32 | |
| 20260506213714 | 60 | 329 | 4.0 | 16.0 | 0.00 | 0.01 | 0.00 | 32 | |
| 20260506213214 | 59 | 302 | 9.0 | 12.0 | 0.00 | 0.01 | 0.00 | 34 | |
| 20260506212714 | 59 | 319 | 2.0 | 13.0 | 0.00 | 0.01 | 0.00 | 32 | |
| 20260506212214 | 62 | 77 | 2.0 | 12.0 | 0.00 | 0.01 | 0.00 | 36 | |
| 20260506211714 | 61 | 343 | 5.0 | 17.0 | 0.00 | 0.01 | 0.00 | 30 | |
| 20260506211214 | 59 | 37 | 3.0 | 16.0 | 0.00 | 0.01 | 0.00 | 35 | |
| 20260506210714 | 58 | 307 | 8.0 | 22.0 | 0.00 | 0.01 | 0.00 | 35 | |
| 20260506210214 | 59 | 289 | 4.0 | 20.0 | 0.00 | 0.01 | 0.00 | 34 | |
| 20260506205916 | 59 | 316 | 12.0 | 19.0 | 0.00 | 0.01 | 0.00 | 34 | |
| 20260506205714 | 59 | 316 | 12.0 | 19.0 | 0.00 | 0.01 | 0.00 | 34 | |
| 20260506205214 | 59 | 329 | 5.0 | 10.0 | 0.00 | 0.01 | 0.00 | 39 | |
| 20260506204714 | 57 | 320 | 9.0 | 15.0 | 0.00 | 0.01 | 0.00 | 40 | |
| 20260506204214 | 58 | 299 | 10.0 | 17.0 | 0.00 | 0.01 | 0.00 | 42 | |
| 20260506203714 | 58 | 299 | 14.0 | 16.0 | 0.00 | 0.01 | 0.00 | 39 | |
| 20260506203214 | 57 | 323 | 8.0 | 17.0 | 0.00 | 0.01 | 0.00 | 40 | |
| 20260506202714 | 57 | 306 | 10.0 | 13.0 | 0.00 | 0.01 | 0.00 | 41 | |
| 20260506202214 | 56 | 116 | 6.0 | 11.0 | 0.00 | 0.01 | 0.00 | 43 | |
| 20260506201714 | 56 | 5 | 5.0 | 9.0 | 0.00 | 0.01 | 0.00 | 49 | |
| 20260506201214 | 55 | 323 | 9.0 | 18.0 | 0.00 | 0.01 | 0.00 | 49 | |
| 20260506200714 | 54 | 331 | 9.0 | 21.0 | 0.00 | 0.01 | 0.00 | 47 | |
| 20260506200214 | 57 | 333 | 0.0 | 10.0 | 0.00 | 0.01 | 0.00 | 43 | |
| 20260506195714 | 57 | 315 | 5.0 | 13.0 | 0.00 | 0.01 | 0.00 | 41 | |
| 20260506195214 | 58 | 310 | 6.0 | 10.0 | 0.00 | 0.01 | 0.00 | 39 | |
| 20260506194714 | 59 | 322 | 4.0 | 12.0 | 0.00 | 0.01 | 0.00 | 37 | |
| 20260506194214 | 58 | 144 | 4.0 | 12.0 | 0.00 | 0.01 | 0.00 | 39 | |
| 20260506193714 | 57 | 28 | 6.0 | 11.0 | 0.00 | 0.01 | 0.00 | 42 | |
| 20260506193214 | 56 | 172 | 1.0 | 8.0 | 0.00 | 0.01 | 0.00 | 42 | |
| 20260506192714 | 56 | 220 | 4.0 | 11.0 | 0.00 | 0.01 | 0.00 | 42 | |
| 20260506192214 | 56 | 164 | 6.0 | 12.0 | 0.00 | 0.01 | 0.00 | 40 |